• In Uzbekistan
  • List of Countries
  • For 7 days
  • Water Temperature
  • Satellite Maps
  • Weather Map
  • Weather Widgets
  • user-avatar
    Login

    Hourly Weather Serednica

    Today, 23 September, Sunday

    Time Temperature Precipitation Wind Pressure Humidity
    00:00 +8°C° 0 mm 2 mps 725 mmHg 82%
    01:00 +9°C° 0 mm 1 mps 725 mmHg 83%
    02:00 +8°C° 0 mm 2 mps 725 mmHg 84%
    03:00 +7°C° 0 mm 2 mps 725 mmHg 84%
    04:00 +7°C° 0 mm 2 mps 725 mmHg 85%
    05:00 +8°C° 0 mm 2 mps 725 mmHg 84%
    06:00 +8°C° 0 mm 3 mps 725 mmHg 82%
    07:00 +9°C° 0 mm 3 mps 724 mmHg 79%
    08:00 +11°C° 0 mm 3 mps 725 mmHg 72%
    09:00 +12°C° 0 mm 4 mps 725 mmHg 65%
    10:00 +14°C° 0 mm 4 mps 725 mmHg 59%
    11:00 +15°C° 0 mm 4 mps 724 mmHg 56%
    12:00 +15°C° 0 mm 4 mps 724 mmHg 54%
    13:00 +16°C° 0 mm 5 mps 724 mmHg 53%
    14:00 +15°C° 0 mm 5 mps 723 mmHg 54%
    15:00 +15°C° 0 mm 4 mps 723 mmHg 56%
    16:00 +15°C° 0 mm 4 mps 722 mmHg 58%
    17:00 +14°C° 0 mm 5 mps 721 mmHg 59%
    18:00 +13°C° 0 mm 5 mps 720 mmHg 60%
    19:00 +13°C° 0 mm 6 mps 720 mmHg 61%
    20:00 +12°C° 0.1 mm 7 mps 718 mmHg 60%
    21:00 +12°C° 0.1 mm 8 mps 717 mmHg 59%
    22:00 +12°C° 0.1 mm 9 mps 716 mmHg 57%
    23:00 +12°C° 0.3 mm 10 mps 715 mmHg 63%

    Tomorrow, 24 September, Monday

    Time Temperature Precipitation Wind Pressure Humidity
    00:00 +12°C° 0.3 mm 10 mps 715 mmHg 68%
    01:00 +12°C° 0.3 mm 11 mps 714 mmHg 73%
    02:00 +12°C° 1.7 mm 10 mps 714 mmHg 78%
    03:00 +11°C° 1.7 mm 9 mps 714 mmHg 84%
    04:00 +11°C° 1.7 mm 8 mps 714 mmHg 89%
    05:00 +10°C° 1 mm 7 mps 716 mmHg 89%
    06:00 +8°C° 1 mm 7 mps 717 mmHg 88%
    07:00 +6°C° 1 mm 7 mps 718 mmHg 87%
    08:00 +6°C° 0.1 mm 7 mps 720 mmHg 86%
    09:00 +7°C° 0.1 mm 6 mps 721 mmHg 84%
    10:00 +7°C° 0.1 mm 6 mps 722 mmHg 83%
    11:00 +8°C° 0.1 mm 7 mps 722 mmHg 78%
    12:00 +8°C° 0.1 mm 7 mps 723 mmHg 73%
    13:00 +9°C° 0.1 mm 8 mps 723 mmHg 68%
    14:00 +9°C° 0.1 mm 7 mps 724 mmHg 66%
    15:00 +8°C° 0.1 mm 7 mps 724 mmHg 65%
    16:00 +8°C° 0.1 mm 7 mps 724 mmHg 63%
    17:00 +7°C° 0 mm 6 mps 725 mmHg 66%
    18:00 +6°C° 0 mm 5 mps 725 mmHg 69%
    19:00 +5°C° 0 mm 4 mps 726 mmHg 73%
    20:00 +5°C° 0 mm 5 mps 726 mmHg 72%
    21:00 +3°C° 0 mm 5 mps 726 mmHg 72%
    22:00 +3°C° 0 mm 5 mps 726 mmHg 71%
    23:00 +3°C° 0.2 mm 5 mps 726 mmHg 76%

    Day after tomorrow, 25 September, Tuesday

    Time Temperature Precipitation Wind Pressure Humidity
    00:00 +3°C° 0.2 mm 5 mps 727 mmHg 80%
    01:00 +3°C° 0.2 mm 5 mps 727 mmHg 85%
    02:00 +3°C° 0.3 mm 5 mps 727 mmHg 87%
    03:00 +3°C° 0.3 mm 5 mps 728 mmHg 89%
    04:00 +3°C° 0.3 mm 5 mps 729 mmHg 91%
    05:00 +3°C° 0 mm 5 mps 729 mmHg 90%
    06:00 +3°C° 0 mm 5 mps 730 mmHg 89%
    07:00 +3°C° 0 mm 5 mps 731 mmHg 88%
    08:00 +5°C° 0.1 mm 5 mps 731 mmHg 81%
    09:00 +6°C° 0.1 mm 5 mps 732 mmHg 73%
    10:00 +8°C° 0.1 mm 6 mps 732 mmHg 65%
    11:00 +8°C° 0.2 mm 6 mps 732 mmHg 62%
    12:00 +8°C° 0.2 mm 6 mps 732 mmHg 59%
    13:00 +9°C° 0.2 mm 6 mps 733 mmHg 56%
    14:00 +9°C° 0.1 mm 6 mps 733 mmHg 56%
    15:00 +8°C° 0.1 mm 5 mps 733 mmHg 55%
    16:00 +8°C° 0.1 mm 5 mps 733 mmHg 55%
    17:00 +6°C° 0 mm 4 mps 734 mmHg 59%
    18:00 +5°C° 0 mm 3 mps 734 mmHg 62%
    19:00 +4°C° 0 mm 2 mps 735 mmHg 66%
    20:00 +4°C° 0 mm 2 mps 735 mmHg 68%
    21:00 +3°C° 0 mm 2 mps 735 mmHg 70%
    22:00 +3°C° 0 mm 2 mps 736 mmHg 71%
    23:00 +3°C° 0 mm 2 mps 736 mmHg 73%

    26 September, Wednesday

    Time Temperature Precipitation Wind Pressure Humidity
    00:00 +3°C° 0 mm 2 mps 736 mmHg 74%
    01:00 +4°C° 0 mm 1 mps 736 mmHg 75%
    02:00 +3°C° 0 mm 1 mps 737 mmHg 78%
    03:00 +3°C° 0 mm 1 mps 737 mmHg 81%
    04:00 +2°C° 0 mm 1 mps 737 mmHg 84%
    05:00 +3°C° 0 mm 1 mps 737 mmHg 82%
    06:00 +4°C° 0 mm 1 mps 737 mmHg 80%
    07:00 +5°C° 0 mm 1 mps 737 mmHg 77%
    08:00 +7°C° 0 mm 1 mps 737 mmHg 68%
    09:00 +9°C° 0 mm 1 mps 737 mmHg 59%
    10:00 +10°C° 0 mm 2 mps 737 mmHg 49%
    11:00 +12°C° 0 mm 2 mps 737 mmHg 47%
    12:00 +12°C° 0 mm 2 mps 736 mmHg 44%
    13:00 +13°C° 0 mm 2 mps 736 mmHg 41%
    14:00 +13°C° 0 mm 2 mps 735 mmHg 45%
    15:00 +13°C° 0 mm 2 mps 735 mmHg 50%
    16:00 +12°C° 0 mm 2 mps 734 mmHg 54%
    17:00 +10°C° 0 mm 2 mps 734 mmHg 57%
    18:00 +8°C° 0 mm 2 mps 734 mmHg 61%
    19:00 +7°C° 0 mm 3 mps 734 mmHg 64%
    20:00 +7°C° 0 mm 3 mps 734 mmHg 64%
    21:00 +7°C° 0 mm 3 mps 733 mmHg 63%
    22:00 +7°C° 0 mm 3 mps 733 mmHg 62%
    23:00 +7°C° 0 mm 3 mps 733 mmHg 63%

    27 September, Thursday

    Time Temperature Precipitation Wind Pressure Humidity
    00:00 +6°C° 0 mm 4 mps 733 mmHg 63%
    01:00 +6°C° 0 mm 4 mps 732 mmHg 63%
    02:00 +6°C° 0 mm 4 mps 732 mmHg 62%
    03:00 +6°C° 0 mm 4 mps 732 mmHg 62%
    04:00 +6°C° 0 mm 4 mps 732 mmHg 62%
    05:00 +6°C° 0 mm 4 mps 731 mmHg 60%
    06:00 +6°C° 0 mm 4 mps 731 mmHg 59%
    07:00 +7°C° 0 mm 4 mps 731 mmHg 58%
    08:00 +8°C° 0 mm 4 mps 731 mmHg 56%
    09:00 +10°C° 0 mm 4 mps 731 mmHg 53%
    10:00 +11°C° 0 mm 4 mps 731 mmHg 51%
    11:00 +13°C° 0 mm 5 mps 731 mmHg 49%
    12:00 +14°C° 0 mm 5 mps 730 mmHg 48%
    13:00 +15°C° 0 mm 5 mps 730 mmHg 47%
    14:00 +15°C° 0 mm 4 mps 730 mmHg 50%
    15:00 +15°C° 0 mm 4 mps 729 mmHg 53%
    16:00 +14°C° 0 mm 3 mps 729 mmHg 56%
    17:00 +13°C° 0 mm 3 mps 729 mmHg 58%
    18:00 +11°C° 0 mm 3 mps 729 mmHg 60%
    19:00 +10°C° 0 mm 3 mps 729 mmHg 62%
    20:00 +9°C° 0 mm 3 mps 729 mmHg 62%
    21:00 +9°C° 0 mm 3 mps 729 mmHg 61%
    22:00 +9°C° 0 mm 3 mps 728 mmHg 60%
    23:00 +9°C° 0 mm 3 mps 728 mmHg 61%

    28 September, Friday

    Time Temperature Precipitation Wind Pressure Humidity
    00:00 +9°C° 0 mm 3 mps 728 mmHg 61%
    01:00 +8°C° 0 mm 3 mps 727 mmHg 61%
    02:00 +8°C° 0 mm 3 mps 727 mmHg 61%
    03:00 +8°C° 0 mm 3 mps 726 mmHg 61%
    04:00 +8°C° 0 mm 3 mps 726 mmHg 61%
    05:00 +9°C° 0 mm 3 mps 726 mmHg 61%
    06:00 +9°C° 0 mm 3 mps 726 mmHg 61%
    07:00 +10°C° 0 mm 3 mps 726 mmHg 60%
    08:00 +12°C° 0 mm 3 mps 726 mmHg 56%
    09:00 +14°C° 0 mm 3 mps 726 mmHg 52%
    10:00 +17°C° 0 mm 3 mps 726 mmHg 48%
    11:00 +18°C° 0 mm 3 mps 726 mmHg 48%
    12:00 +18°C° 0 mm 2 mps 726 mmHg 48%
    13:00 +19°C° 0 mm 2 mps 726 mmHg 48%
    14:00 +19°C° 0 mm 2 mps 726 mmHg 52%
    15:00 +19°C° 0 mm 1 mps 725 mmHg 57%
    16:00 +18°C° 0 mm 1 mps 725 mmHg 61%
    17:00 +15°C° 0 mm 1 mps 726 mmHg 69%
    18:00 +13°C° 0 mm 1 mps 726 mmHg 76%
    19:00 +12°C° 0 mm 1 mps 726 mmHg 83%
    20:00 +11°C° 0 mm 1 mps 726 mmHg 85%
    21:00 +11°C° 0 mm 1 mps 726 mmHg 87%
    22:00 +10°C° 0 mm 2 mps 727 mmHg 89%
    23:00 +10°C° 0 mm 2 mps 727 mmHg 89%
    Show more